This is the latest recevied weather packets stored in our database for station/object KA7EII-13. If no packets are shown the sender has not sent any weather packets the latest 10 day(s).
| Time | Temp. | Humidity | Pressure | Rain* | Wind** | Luminosity | Snow |
|---|---|---|---|---|---|---|---|
| 1777825525 | 17.78° C | 32% | 1105.4 hPa | 0 mm | - | 621 W/m² | - |
| 1777825223 | 17.78° C | 32% | 1105.5 hPa | 0 mm | - | 621 W/m² | - |
| 1777824920 | 17.78° C | 33% | 1105.5 hPa | 0 mm | - | 618 W/m² | - |
| 1777824616 | 17.78° C | 34% | 1105.4 hPa | 0 mm | - | 613 W/m² | - |
| 1777824313 | 16.67° C | 32% | 1105.4 hPa | 0 mm | - | 585 W/m² | - |
| 1777824009 | 16.67° C | 36% | 1105.5 hPa | 0 mm | - | 560 W/m² | - |
| 1777823705 | 17.22° C | 34% | 1105.8 hPa | 0 mm | - | 507 W/m² | - |
| 1777823402 | 16.67° C | 37% | 1105.4 hPa | 0 mm | - | 517 W/m² | - |
| 1777823100 | 16.67° C | 34% | 1105.5 hPa | 0 mm | - | 497 W/m² | - |
| 1777822797 | 16.11° C | 39% | 1105.8 hPa | 0 mm | - | 476 W/m² | - |
| 1777822495 | 15.56° C | 37% | 1105.6 hPa | 0 mm | - | 429 W/m² | - |
| 1777822192 | 15° C | 38% | 1105.6 hPa | 0 mm | - | 399 W/m² | - |
| 1777821890 | 15.56° C | 40% | 1105.8 hPa | 0 mm | - | 358 W/m² | - |
| 1777821587 | 15° C | 44% | 1105.8 hPa | 0 mm | - | 331 W/m² | - |
| 1777821285 | 13.33° C | 45% | 1105.8 hPa | 0 mm | - | 337 W/m² | - |
| 1777820982 | 13.33° C | 43% | 1105.9 hPa | 0 mm | - | 333 W/m² | - |
| 1777820679 | 12.78° C | 44% | 1105.9 hPa | 0 mm | - | 287 W/m² | - |
| 1777820374 | 12.78° C | 43% | 1105.9 hPa | 0 mm | - | 332 W/m² | - |
| 1777820072 | 12.78° C | 43% | 1105.9 hPa | 0 mm | - | 304 W/m² | - |
| 1777819769 | 12.78° C | 43% | 1106 hPa | 0 mm | - | 254 W/m² | - |
| 1777819467 | 11.67° C | 45% | 1106 hPa | 0 mm | - | 272 W/m² | - |
| 1777819165 | 11.67° C | 46% | 1105.9 hPa | 0 mm | - | 255 W/m² | - |
| 1777818861 | 10.56° C | 47% | 1106 hPa | 0 mm | - | 262 W/m² | - |
| 1777818557 | 10.56° C | 48% | 1106 hPa | 0 mm | - | 226 W/m² | - |
| 1777818255 | 10° C | 49% | 1105.9 hPa | 0 mm | - | 200 W/m² | - |
* Rain latest hour (hover to see other rain measurements)
** Current wind speed in m/s (hover to see current wind gust speed)